Time,TemperatureF,DewpointF,PressureIn,WindDirection,WindDirectionDegrees,WindSpeedMPH,WindSpeedGustMPH,Humidity,HourlyPrecipIn,Conditions,Clouds,dailyrainin,SolarRadiationWatts/m^2,SoftwareType,DateUTC
2013-01-13 00:00:00,11.0,1.9,30.35,NNW,335,6.0,9.0,66,0.00,,OVC075,0.00,0.00,VWS V14.01,2013-01-13 07:00:00,
2013-01-13 00:03:00,11.0,1.9,30.34,NNW,348,5.0,6.0,66,0.00,,OVC036,0.00,0.00,VWS V14.01,2013-01-13 07:03:00,
2013-01-13 00:08:00,11.0,2.2,30.34,NNW,347,3.0,7.0,67,0.00,,OVC036,0.00,0.00,VWS V14.01,2013-01-13 07:08:00,
2013-01-13 00:13:00,11.0,2.2,30.35,NW,322,3.0,7.0,67,0.00,,OVC036,0.00,0.00,VWS V14.01,2013-01-13 07:13:00,
2013-01-13 00:18:00,11.0,2.2,30.35,NNW,348,4.0,7.0,67,0.00,,OVC036,0.00,0.00,VWS V14.01,2013-01-13 07:18:00,
2013-01-13 00:23:00,11.1,2.3,30.35,NNW,336,2.0,7.0,67,0.00,,OVC036,0.00,0.00,VWS V14.01,2013-01-13 07:23:00,
2013-01-13 00:28:00,11.1,2.3,30.35,North,355,4.0,7.0,67,0.00,,OVC036,0.00,0.00,VWS V14.01,2013-01-13 07:28:00,
2013-01-13 00:30:00,11.1,2.3,30.35,NNW,345,2.0,7.0,67,0.00,,OVC075,0.00,0.00,VWS V14.01,2013-01-13 07:30:00,
2013-01-13 00:33:00,11.1,2.3,30.35,NNW,347,4.0,4.0,67,0.00,,OVC036,0.00,0.00,VWS V14.01,2013-01-13 07:33:00,
2013-01-13 00:38:00,11.1,2.3,30.35,NNW,335,3.0,5.0,67,0.00,,OVC036,0.00,0.00,VWS V14.01,2013-01-13 07:38:00,
2013-01-13 00:43:00,11.1,2.3,30.35,NNW,342,5.0,5.0,67,0.00,,OVC036,0.00,0.00,VWS V14.01,2013-01-13 07:43:00,
2013-01-13 00:48:00,11.0,2.5,30.35,North,355,2.0,5.0,68,0.00,,OVC036,0.00,0.00,VWS V14.01,2013-01-13 07:48:00,
2013-01-13 00:53:00,11.0,2.5,30.35,NNW,332,1.0,5.0,68,0.00,,OVC036,0.00,0.00,VWS V14.01,2013-01-13 07:53:00,
2013-01-13 00:58:00,10.9,2.4,30.35,NNW,338,1.0,5.0,68,0.00,,OVC036,0.00,0.00,VWS V14.01,2013-01-13 07:58:00,
2013-01-13 01:00:00,10.9,2.4,30.35,NNW,336,1.0,5.0,68,0.00,,OVC075,0.00,0.00,VWS V14.01,2013-01-13 08:00:00,
2013-01-13 01:03:00,10.9,2.4,30.35,NNW,332,1.0,4.0,68,0.00,,OVC036,0.00,0.00,VWS V14.01,2013-01-13 08:03:00,
2013-01-13 01:08:00,10.8,2.3,30.35,NW,325,1.0,4.0,68,0.00,,OVC036,0.00,0.00,VWS V14.01,2013-01-13 08:08:00,
2013-01-13 01:13:00,10.7,2.2,30.35,NW,320,0.0,4.0,68,0.00,,OVC036,0.00,0.00,VWS V14.01,2013-01-13 08:13:00,
2013-01-13 01:18:00,10.5,2.4,30.35,NW,319,0.0,4.0,69,0.00,,OVC036,0.00,0.00,VWS V14.01,2013-01-13 08:18:00,
2013-01-13 01:24:00,9.9,2.1,30.36,NW,319,0.0,4.0,70,0.00,,OVC036,0.00,0.00,VWS V14.01,2013-01-13 08:24:00,
2013-01-13 01:28:00,9.6,2.1,30.36,NW,319,0.0,4.0,71,0.00,,OVC036,0.00,0.00,VWS V14.01,2013-01-13 08:28:00,
2013-01-13 01:30:00,9.6,2.4,30.36,NW,319,0.0,4.0,72,0.00,,OVC075,0.00,0.00,VWS V14.01,2013-01-13 08:30:00,
2013-01-13 01:33:00,9.4,2.2,30.36,NW,319,0.0,0.0,72,0.00,,OVC034,0.00,0.00,VWS V14.01,2013-01-13 08:33:00,
2013-01-13 01:38:00,9.3,2.1,30.36,NW,319,0.0,0.0,72,0.00,,OVC034,0.00,0.00,VWS V14.01,2013-01-13 08:38:00,
2013-01-13 01:43:00,9.3,2.1,30.36,NW,319,0.0,1.0,72,0.00,,OVC034,0.00,0.00,VWS V14.01,2013-01-13 08:43:00,
2013-01-13 01:49:00,9.3,2.4,30.36,NW,319,0.0,1.0,73,0.00,,OVC034,0.00,0.00,VWS V14.01,2013-01-13 08:49:00,
2013-01-13 01:54:00,9.3,2.4,30.36,NW,319,0.0,1.0,73,0.00,,OVC034,0.00,0.00,VWS V14.01,2013-01-13 08:54:00,
2013-01-13 01:59:00,9.3,2.4,30.36,NW,319,0.0,2.0,73,0.00,,OVC034,0.00,0.00,VWS V14.01,2013-01-13 08:59:00,
2013-01-13 02:00:00,9.2,2.3,30.36,NW,319,0.0,2.0,73,0.00,,OVC075,0.00,0.00,VWS V14.01,2013-01-13 09:00:00,
2013-01-13 02:04:00,9.0,2.1,30.36,NW,319,1.0,2.0,73,0.00,,OVC034,0.00,0.00,VWS V14.01,2013-01-13 09:04:00,
2013-01-13 02:09:00,8.7,2.1,30.36,NW,319,1.0,2.0,74,0.00,,OVC034,0.00,0.00,VWS V14.01,2013-01-13 09:09:00,
2013-01-13 02:14:00,8.6,2.0,30.36,WNW,298,2.0,3.0,74,0.00,,OVC034,0.00,0.00,VWS V14.01,2013-01-13 09:14:00,
2013-01-13 02:19:00,8.5,1.9,30.36,WNW,298,0.0,3.0,74,0.00,,OVC034,0.00,0.00,VWS V14.01,2013-01-13 09:19:00,
2013-01-13 02:24:00,8.5,2.2,30.36,WNW,298,0.0,3.0,75,0.00,,OVC034,0.00,0.00,VWS V14.01,2013-01-13 09:24:00,
2013-01-13 02:29:00,8.6,2.3,30.36,WNW,298,1.0,3.0,75,0.00,,OVC034,0.00,0.00,VWS V14.01,2013-01-13 09:29:00,
2013-01-13 02:30:00,8.6,2.3,30.36,WNW,298,2.0,3.0,75,0.00,,OVC075,0.00,0.00,VWS V14.01,2013-01-13 09:30:00,
2013-01-13 02:34:00,8.7,2.4,30.36,WNW,298,0.0,2.0,75,0.00,,SCT070,0.00,0.00,VWS V14.01,2013-01-13 09:34:00,
2013-01-13 02:39:00,8.8,2.5,30.35,WNW,298,1.0,2.0,75,0.00,,SCT070,0.00,0.00,VWS V14.01,2013-01-13 09:39:00,
2013-01-13 02:44:00,8.9,2.6,30.35,WNW,298,0.0,2.0,75,0.00,,SCT070,0.00,0.00,VWS V14.01,2013-01-13 09:44:00,
2013-01-13 02:49:00,9.0,2.7,30.35,WNW,298,0.0,2.0,75,0.00,,SCT070,0.00,0.00,VWS V14.01,2013-01-13 09:49:00,
2013-01-13 02:54:00,8.9,2.9,30.35,WNW,298,0.0,2.0,76,0.00,,SCT070,0.00,0.00,VWS V14.01,2013-01-13 09:54:00,
2013-01-13 02:59:00,8.9,2.9,30.35,WNW,298,0.0,2.0,76,0.00,,SCT070,0.00,0.00,VWS V14.01,2013-01-13 09:59:00,
2013-01-13 03:00:00,8.8,2.8,30.34,WNW,298,0.0,2.0,76,0.00,,OVC075,0.00,0.00,VWS V14.01,2013-01-13 10:00:00,
2013-01-13 03:04:00,8.8,2.8,30.34,WNW,298,1.0,2.0,76,0.00,,SCT070,0.00,0.00,VWS V14.01,2013-01-13 10:04:00,
2013-01-13 03:09:00,8.6,2.6,30.34,WNW,298,1.0,2.0,76,0.00,,SCT070,0.00,0.00,VWS V14.01,2013-01-13 10:09:00,
2013-01-13 03:14:00,8.5,2.8,30.34,WNW,296,1.0,2.0,77,0.00,,SCT070,0.00,0.00,VWS V14.01,2013-01-13 10:14:00,
2013-01-13 03:19:00,8.4,2.7,30.35,WNW,290,2.0,3.0,77,0.00,,SCT070,0.00,0.00,VWS V14.01,2013-01-13 10:19:00,
2013-01-13 03:24:00,8.4,3.0,30.35,WNW,286,0.0,3.0,78,0.00,,SCT070,0.00,0.00,VWS V14.01,2013-01-13 10:24:00,
2013-01-13 03:29:00,8.6,3.2,30.34,West,267,1.0,3.0,78,0.00,,SCT070,0.00,0.00,VWS V14.01,2013-01-13 10:29:00,
2013-01-13 03:30:00,8.6,3.2,30.34,West,267,0.0,3.0,78,0.00,,OVC075,0.00,0.00,VWS V14.01,2013-01-13 10:30:00,
2013-01-13 03:34:00,8.6,3.2,30.33,West,263,0.0,2.0,78,0.00,,BKN042,0.00,0.00,VWS V14.01,2013-01-13 10:34:00,
2013-01-13 03:39:00,8.6,3.2,30.33,West,263,0.0,2.0,78,0.00,,BKN042,0.00,0.00,VWS V14.01,2013-01-13 10:39:00,
2013-01-13 03:44:00,8.6,3.2,30.33,West,263,0.0,2.0,78,0.00,,BKN042,0.00,0.00,VWS V14.01,2013-01-13 10:44:00,
2013-01-13 03:49:00,8.5,3.1,30.33,West,263,1.0,2.0,78,0.00,,BKN042,0.00,0.00,VWS V14.01,2013-01-13 10:49:00,
2013-01-13 03:54:00,8.5,3.3,30.33,West,263,0.0,2.0,79,0.00,,BKN042,0.00,0.00,VWS V14.01,2013-01-13 10:54:00,
2013-01-13 03:59:00,8.4,3.2,30.33,West,263,0.0,2.0,79,0.00,,BKN042,0.00,0.00,VWS V14.01,2013-01-13 10:59:00,
2013-01-13 04:00:00,8.3,3.1,30.34,West,263,0.0,2.0,79,0.00,,OVC075,0.00,0.00,VWS V14.01,2013-01-13 11:00:00,
2013-01-13 04:04:00,8.0,2.8,30.33,West,263,2.0,2.0,79,0.00,,BKN042,0.00,0.00,VWS V14.01,2013-01-13 11:04:00,
2013-01-13 04:09:00,7.7,2.6,30.33,West,263,1.0,2.0,79,0.00,,BKN042,0.00,0.00,VWS V14.01,2013-01-13 11:09:00,
2013-01-13 04:14:00,7.5,2.4,30.33,West,262,0.0,3.0,79,0.00,,BKN042,0.00,0.00,VWS V14.01,2013-01-13 11:14:00,
2013-01-13 04:19:00,7.5,2.6,30.33,SW,236,1.0,3.0,80,0.00,,BKN042,0.00,0.00,VWS V14.01,2013-01-13 11:19:00,
2013-01-13 04:24:00,7.6,2.7,30.33,SW,236,1.0,3.0,80,0.00,,BKN042,0.00,0.00,VWS V14.01,2013-01-13 11:24:00,
2013-01-13 04:29:00,7.5,2.6,30.33,WSW,237,2.0,3.0,80,0.00,,BKN042,0.00,0.00,VWS V14.01,2013-01-13 11:29:00,
2013-01-13 04:30:00,7.5,2.6,30.33,WSW,238,0.0,3.0,80,0.00,,OVC075,0.00,0.00,VWS V14.01,2013-01-13 11:30:00,
2013-01-13 04:34:00,7.5,2.6,30.33,WSW,238,2.0,2.0,80,0.00,,BKN075,0.00,0.00,VWS V14.01,2013-01-13 11:34:00,
2013-01-13 04:39:00,7.5,2.6,30.33,WSW,237,0.0,2.0,80,0.00,,BKN075,0.00,0.00,VWS V14.01,2013-01-13 11:39:00,
2013-01-13 04:44:00,7.5,2.6,30.33,WSW,237,1.0,2.0,80,0.00,,BKN075,0.00,0.00,VWS V14.01,2013-01-13 11:44:00,
2013-01-13 04:49:00,7.6,2.7,30.33,WSW,237,0.0,2.0,80,0.00,,BKN075,0.00,0.00,VWS V14.01,2013-01-13 11:49:00,
2013-01-13 04:54:00,7.8,3.2,30.33,WSW,238,0.0,2.0,81,0.00,,BKN075,0.00,0.00,VWS V14.01,2013-01-13 11:54:00,
2013-01-13 04:59:00,8.0,3.4,30.33,WSW,248,0.0,2.0,81,0.00,,BKN075,0.00,0.00,VWS V14.01,2013-01-13 11:59:00,
2013-01-13 05:00:00,8.0,3.4,30.33,WSW,249,2.0,2.0,81,0.00,,OVC075,0.00,0.00,VWS V14.01,2013-01-13 12:00:00,
2013-01-13 05:04:00,8.1,3.2,30.33,WSW,254,1.0,2.0,80,0.00,,BKN075,0.00,0.00,VWS V14.01,2013-01-13 12:04:00,
2013-01-13 05:09:00,8.1,3.2,30.33,WSW,253,0.0,2.0,80,0.00,,BKN075,0.00,0.00,VWS V14.01,2013-01-13 12:09:00,
2013-01-13 05:14:00,8.0,3.1,30.33,WSW,253,1.0,3.0,80,0.00,,BKN075,0.00,0.00,VWS V14.01,2013-01-13 12:14:00,
2013-01-13 05:19:00,7.9,3.0,30.33,WSW,257,0.0,3.0,80,0.00,,BKN075,0.00,0.00,VWS V14.01,2013-01-13 12:19:00,
2013-01-13 05:24:00,7.9,3.0,30.33,WSW,256,0.0,3.0,80,0.00,,BKN075,0.00,0.00,VWS V14.01,2013-01-13 12:24:00,
2013-01-13 05:29:00,7.9,3.0,30.33,WSW,256,1.0,3.0,80,0.00,,BKN075,0.00,0.00,VWS V14.01,2013-01-13 12:29:00,
2013-01-13 05:30:00,7.9,3.0,30.33,WSW,256,0.0,3.0,80,0.00,,OVC075,0.00,0.00,VWS V14.01,2013-01-13 12:30:00,
2013-01-13 05:34:00,7.9,3.0,30.33,WSW,257,0.0,2.0,80,0.00,,OVC042,0.00,0.00,VWS V14.01,2013-01-13 12:34:00,
2013-01-13 05:39:00,7.9,3.0,30.33,WSW,257,1.0,2.0,80,0.00,,OVC042,0.00,0.00,VWS V14.01,2013-01-13 12:39:00,
2013-01-13 05:44:00,7.9,3.0,30.34,WSW,256,2.0,3.0,80,0.00,,OVC042,0.00,0.00,VWS V14.01,2013-01-13 12:44:00,
2013-01-13 05:49:00,7.9,2.8,30.34,WSW,254,2.0,3.0,79,0.00,,OVC042,0.00,0.00,VWS V14.01,2013-01-13 12:49:00,
2013-01-13 05:54:00,7.9,2.8,30.34,WSW,255,0.0,3.0,79,0.00,,OVC042,0.00,0.00,VWS V14.01,2013-01-13 12:54:00,
2013-01-13 05:59:00,7.9,2.8,30.34,WSW,255,0.0,3.0,79,0.00,,OVC042,0.00,0.00,VWS V14.01,2013-01-13 12:59:00,
2013-01-13 06:00:00,7.9,2.8,30.34,WSW,255,0.0,3.0,79,0.00,,OVC075,0.00,0.00,VWS V14.01,2013-01-13 13:00:00,
2013-01-13 06:04:00,7.9,2.8,30.34,WSW,254,1.0,1.0,79,0.00,,CLR,0.00,0.00,VWS V14.01,2013-01-13 13:04:00,
2013-01-13 06:09:00,7.7,2.6,30.34,WSW,255,0.0,2.0,79,0.00,,CLR,0.00,0.00,VWS V14.01,2013-01-13 13:09:00,
2013-01-13 06:14:00,7.7,2.6,30.34,WSW,255,0.0,2.0,79,0.00,,CLR,0.00,0.00,VWS V14.01,2013-01-13 13:14:00,
2013-01-13 06:19:00,7.7,2.6,30.35,WSW,256,0.0,2.0,79,0.00,,CLR,0.00,0.00,VWS V14.01,2013-01-13 13:19:00,
2013-01-13 06:24:00,7.8,2.4,30.35,WSW,256,1.0,3.0,78,0.00,,CLR,0.00,0.00,VWS V14.01,2013-01-13 13:24:00,
2013-01-13 06:30:00,7.7,2.3,30.35,WSW,257,1.0,3.0,78,0.00,,CLR,0.00,0.00,VWS V14.01,2013-01-13 13:30:00,
2013-01-13 06:35:00,7.6,2.2,30.35,WSW,256,2.0,2.0,78,0.00,,CLR,0.00,0.00,VWS V14.01,2013-01-13 13:35:00,
2013-01-13 06:40:00,7.4,2.0,30.36,WSW,257,0.0,2.0,78,0.00,,CLR,0.00,0.00,VWS V14.01,2013-01-13 13:40:00,
2013-01-13 06:45:00,7.3,2.2,30.36,WSW,257,0.0,2.0,79,0.00,,CLR,0.00,0.00,VWS V14.01,2013-01-13 13:45:00,
2013-01-13 06:50:00,7.3,2.2,30.36,WSW,238,2.0,3.0,79,0.00,,CLR,0.00,0.00,VWS V14.01,2013-01-13 13:50:00,
2013-01-13 06:55:00,7.7,2.6,30.35,WSW,238,1.0,3.0,79,0.00,,CLR,0.00,0.00,VWS V14.01,2013-01-13 13:55:00,
2013-01-13 07:00:00,8.1,3.0,30.36,WSW,238,1.0,3.0,79,0.00,,CLR,0.00,0.00,VWS V14.01,2013-01-13 14:00:00,
2013-01-13 07:05:00,8.3,3.1,30.36,WSW,256,1.0,3.0,79,0.00,,,0.00,0.00,VWS V14.01,2013-01-13 14:05:00,
2013-01-13 07:10:00,8.5,3.3,30.36,West,259,2.0,3.0,79,0.00,,,0.00,0.00,VWS V14.01,2013-01-13 14:10:00,
2013-01-13 07:15:00,8.6,3.4,30.36,West,259,1.0,3.0,79,0.00,,,0.00,0.00,VWS V14.01,2013-01-13 14:15:00,
2013-01-13 07:20:00,8.6,3.4,30.36,WSW,257,2.0,3.0,79,0.00,,,0.00,0.00,VWS V14.01,2013-01-13 14:20:00,
2013-01-13 07:25:00,8.6,3.7,30.36,West,271,0.0,3.0,80,0.00,,,0.00,5.00,VWS V14.01,2013-01-13 14:25:00,
2013-01-13 07:30:00,8.6,3.7,30.36,West,271,0.0,3.0,80,0.00,,,0.00,11.00,VWS V14.01,2013-01-13 14:30:00,
2013-01-13 07:35:00,8.7,3.8,30.36,West,271,0.0,0.0,80,0.00,,OVC043,0.00,12.00,VWS V14.01,2013-01-13 14:35:00,
2013-01-13 07:40:00,8.7,3.8,30.37,West,271,0.0,0.0,80,0.00,,OVC043,0.00,14.00,VWS V14.01,2013-01-13 14:40:00,
2013-01-13 07:45:00,8.7,3.8,30.37,West,271,0.0,0.0,80,0.00,,OVC043,0.00,18.00,VWS V14.01,2013-01-13 14:45:00,
2013-01-13 07:50:00,8.7,3.8,30.37,West,271,1.0,1.0,80,0.00,,OVC043,0.00,19.00,VWS V14.01,2013-01-13 14:50:00,
2013-01-13 07:55:00,8.7,3.8,30.37,West,271,0.0,1.0,80,0.00,,OVC043,0.00,21.00,VWS V14.01,2013-01-13 14:55:00,
2013-01-13 08:00:00,8.8,4.2,30.37,West,271,0.0,1.0,81,0.00,,OVC043,0.00,21.00,VWS V14.01,2013-01-13 15:00:00,
2013-01-13 08:05:00,8.8,4.2,30.36,West,271,0.0,1.0,81,0.00,,OVC043,0.00,25.00,VWS V14.01,2013-01-13 15:05:00,
2013-01-13 08:10:00,8.7,4.1,30.36,West,271,0.0,1.0,81,0.00,,OVC043,0.00,26.00,VWS V14.01,2013-01-13 15:10:00,
2013-01-13 08:15:00,8.6,4.0,30.37,West,271,0.0,1.0,81,0.00,,OVC043,0.00,28.00,VWS V14.01,2013-01-13 15:15:00,
2013-01-13 08:20:00,8.6,4.0,30.37,West,271,0.0,1.0,81,0.00,,OVC043,0.00,32.00,VWS V14.01,2013-01-13 15:20:00,
2013-01-13 08:25:00,8.7,4.1,30.37,West,271,0.0,1.0,81,0.00,,OVC043,0.00,37.00,VWS V14.01,2013-01-13 15:25:00,
2013-01-13 08:30:00,8.7,4.1,30.37,West,271,0.0,1.0,81,0.00,,OVC043,0.00,39.00,VWS V14.01,2013-01-13 15:30:00,
2013-01-13 08:35:00,8.8,4.2,30.37,West,271,0.0,0.0,81,0.00,,OVC047,0.00,47.00,VWS V14.01,2013-01-13 15:35:00,
2013-01-13 08:40:00,8.9,4.3,30.38,West,271,1.0,2.0,81,0.00,,OVC047,0.00,65.00,VWS V14.01,2013-01-13 15:40:00,
2013-01-13 08:45:00,8.9,4.3,30.38,West,271,0.0,2.0,81,0.00,,OVC047,0.00,84.00,VWS V14.01,2013-01-13 15:45:00,
2013-01-13 08:50:00,9.1,4.5,30.38,West,271,0.0,2.0,81,0.00,,OVC047,0.00,125.00,VWS V14.01,2013-01-13 15:50:00,
2013-01-13 08:55:00,9.5,4.9,30.38,West,271,0.0,2.0,81,0.00,,OVC047,0.00,165.00,VWS V14.01,2013-01-13 15:55:00,
2013-01-13 09:00:00,10.9,6.2,30.37,West,271,0.0,2.0,81,0.00,,OVC047,0.00,179.00,VWS V14.01,2013-01-13 16:00:00,
2013-01-13 09:05:00,11.3,5.8,30.37,West,271,1.0,2.0,78,0.00,,FEW039,0.00,128.00,VWS V14.01,2013-01-13 16:05:00,
2013-01-13 09:10:00,11.1,5.3,30.37,West,271,0.0,2.0,77,0.00,,FEW039,0.00,171.00,VWS V14.01,2013-01-13 16:10:00,
2013-01-13 09:15:00,10.9,5.1,30.37,West,271,1.0,2.0,77,0.00,,FEW039,0.00,213.00,VWS V14.01,2013-01-13 16:15:00,
2013-01-13 09:20:00,10.9,5.4,30.37,WSW,256,0.0,4.0,78,0.00,,FEW039,0.00,255.00,VWS V14.01,2013-01-13 16:20:00,
2013-01-13 09:25:00,11.1,5.3,30.37,SW,226,1.0,4.0,77,0.00,,FEW039,0.00,306.00,VWS V14.01,2013-01-13 16:25:00,
2013-01-13 09:30:00,11.7,5.6,30.37,SW,227,2.0,4.0,76,0.00,,FEW039,0.00,322.00,VWS V14.01,2013-01-13 16:30:00,
2013-01-13 09:35:00,12.3,5.9,30.37,SSW,196,3.0,4.0,75,0.00,,FEW039,0.00,306.00,VWS V14.01,2013-01-13 16:35:00,
2013-01-13 09:40:00,13.1,6.4,30.36,SSW,211,3.0,4.0,74,0.00,,FEW039,0.00,237.00,VWS V14.01,2013-01-13 16:40:00,
2013-01-13 09:45:00,13.7,6.7,30.36,SW,215,0.0,4.0,73,0.00,,FEW039,0.00,200.00,VWS V14.01,2013-01-13 16:45:00,
2013-01-13 09:50:00,14.2,6.5,30.36,SW,215,0.0,4.0,71,0.00,,FEW039,0.00,204.00,VWS V14.01,2013-01-13 16:50:00,
2013-01-13 09:55:00,14.7,7.0,30.35,SW,215,1.0,4.0,71,0.00,,FEW039,0.00,221.00,VWS V14.01,2013-01-13 16:55:00,
2013-01-13 10:00:00,15.3,7.6,30.35,SW,221,0.0,4.0,71,0.00,,FEW039,0.00,278.00,VWS V14.01,2013-01-13 17:00:00,
2013-01-13 10:05:00,15.7,7.3,30.35,West,281,0.0,4.0,69,0.00,,FEW130,0.00,313.00,VWS V14.01,2013-01-13 17:05:00,
2013-01-13 10:10:00,16.2,7.8,30.35,West,280,0.0,4.0,69,0.00,,FEW130,0.00,339.00,VWS V14.01,2013-01-13 17:10:00,
2013-01-13 10:15:00,16.4,8.3,30.35,West,281,0.0,4.0,70,0.00,,FEW130,0.00,260.00,VWS V14.01,2013-01-13 17:15:00,
2013-01-13 10:20:00,16.2,7.8,30.35,West,279,2.0,4.0,69,0.00,,FEW130,0.00,195.00,VWS V14.01,2013-01-13 17:20:00,
2013-01-13 10:25:00,16.0,7.3,30.35,WSW,252,1.0,4.0,68,0.00,,FEW130,0.00,195.00,VWS V14.01,2013-01-13 17:25:00,
2013-01-13 10:30:00,16.3,7.9,30.34,NW,306,2.0,2.0,69,0.00,,FEW130,0.00,229.00,VWS V14.01,2013-01-13 17:30:00,
2013-01-13 10:35:00,16.6,7.6,30.33,WNW,296,0.0,4.0,67,0.00,,FEW130,0.00,297.00,VWS V14.01,2013-01-13 17:35:00,
2013-01-13 10:40:00,16.7,8.0,30.33,WSW,249,2.0,6.0,68,0.00,,FEW130,0.00,348.00,VWS V14.01,2013-01-13 17:40:00,
2013-01-13 10:45:00,17.1,8.4,30.33,WSW,240,5.0,6.0,68,0.00,,FEW130,0.00,383.00,VWS V14.01,2013-01-13 17:45:00,
2013-01-13 10:50:00,17.7,8.6,30.33,West,261,0.0,6.0,67,0.00,,FEW130,0.00,352.00,VWS V14.01,2013-01-13 17:50:00,
2013-01-13 10:55:00,17.9,8.5,30.33,WNW,290,2.0,11.0,66,0.00,,FEW130,0.00,376.00,VWS V14.01,2013-01-13 17:55:00,
2013-01-13 11:00:00,18.1,8.3,30.32,WNW,283,15.0,15.0,65,0.00,,FEW130,0.00,415.00,VWS V14.01,2013-01-13 18:00:00,
2013-01-13 11:05:00,18.2,8.1,30.32,NW,319,11.0,16.0,64,0.00,,FEW130,0.00,410.00,VWS V14.01,2013-01-13 18:05:00,
2013-01-13 11:10:00,18.4,7.9,30.32,NW,321,11.0,16.0,63,0.00,,FEW130,0.00,406.00,VWS V14.01,2013-01-13 18:10:00,
2013-01-13 11:15:00,18.8,8.3,30.31,NW,309,10.0,18.0,63,0.00,,FEW130,0.00,417.00,VWS V14.01,2013-01-13 18:15:00,
2013-01-13 11:20:00,19.2,8.3,30.30,NNW,337,12.0,18.0,62,0.00,,FEW130,0.00,427.00,VWS V14.01,2013-01-13 18:20:00,
2013-01-13 11:25:00,19.1,7.5,30.30,NW,307,12.0,20.0,60,0.00,,FEW130,0.00,418.00,VWS V14.01,2013-01-13 18:25:00,
2013-01-13 11:30:00,19.2,8.0,30.30,NW,306,10.0,14.0,61,0.00,,FEW130,0.00,380.00,VWS V14.01,2013-01-13 18:30:00,
2013-01-13 11:35:00,19.2,8.3,30.30,WSW,243,7.0,14.0,62,0.00,,CLR,0.00,355.00,VWS V14.01,2013-01-13 18:35:00,
2013-01-13 11:40:00,18.5,8.7,30.30,WSW,240,4.0,14.0,65,0.00,,CLR,0.00,380.00,VWS V14.01,2013-01-13 18:40:00,
2013-01-13 11:45:00,18.8,7.6,30.30,NW,325,12.0,18.0,61,0.00,,CLR,0.00,195.00,VWS V14.01,2013-01-13 18:45:00,
2013-01-13 11:51:00,19.0,7.8,30.30,NW,322,10.0,18.0,61,0.00,,CLR,0.00,427.00,VWS V14.01,2013-01-13 18:51:00,
2013-01-13 11:56:00,19.1,7.9,30.30,NW,317,9.0,18.0,61,0.00,,CLR,0.00,485.00,VWS V14.01,2013-01-13 18:56:00,
2013-01-13 12:00:00,19.5,8.3,30.29,NW,319,12.0,13.0,61,0.00,,CLR,0.00,482.00,VWS V14.01,2013-01-13 19:00:00,
2013-01-13 12:06:00,19.5,8.6,30.30,WNW,294,8.0,15.0,62,0.00,,CLR,0.00,513.00,VWS V14.01,2013-01-13 19:06:00,
2013-01-13 12:11:00,19.2,7.6,30.29,NW,321,14.0,17.0,60,0.00,,CLR,0.00,151.00,VWS V14.01,2013-01-13 19:11:00,
2013-01-13 12:16:00,19.1,8.2,30.29,WNW,297,10.0,17.0,62,0.00,,CLR,0.00,195.00,VWS V14.01,2013-01-13 19:16:00,
2013-01-13 12:21:00,19.1,7.9,30.29,NW,316,11.0,17.0,61,0.00,,CLR,0.00,204.00,VWS V14.01,2013-01-13 19:21:00,
2013-01-13 12:26:00,19.1,7.5,30.29,NW,319,10.0,17.0,60,0.00,,CLR,0.00,281.00,VWS V14.01,2013-01-13 19:26:00,
2013-01-13 12:30:00,19.3,8.1,30.29,NW,316,7.0,17.0,61,0.00,,OVC075,0.00,236.00,VWS V14.01,2013-01-13 19:30:00,
2013-01-13 12:31:00,19.3,7.7,30.29,NW,311,12.0,12.0,60,0.00,,CLR,0.00,236.00,VWS V14.01,2013-01-13 19:31:00,
2013-01-13 12:36:00,19.4,7.4,30.29,NW,305,13.0,14.0,59,0.00,,FEW026,0.00,216.00,VWS V14.01,2013-01-13 19:36:00,
2013-01-13 12:41:00,19.4,7.4,30.29,WNW,302,11.0,15.0,59,0.00,,FEW026,0.00,211.00,VWS V14.01,2013-01-13 19:41:00,
2013-01-13 12:46:00,19.4,7.4,30.29,WNW,292,11.0,17.0,59,0.00,,FEW026,0.00,207.00,VWS V14.01,2013-01-13 19:46:00,
2013-01-13 12:51:00,19.3,6.9,30.29,NW,318,9.0,18.0,58,0.00,,FEW026,0.00,216.00,VWS V14.01,2013-01-13 19:51:00,
2013-01-13 12:56:00,19.7,8.1,30.29,NW,307,12.0,18.0,60,0.00,,FEW026,0.00,207.00,VWS V14.01,2013-01-13 19:56:00,
2013-01-13 13:00:00,19.7,6.6,30.29,NW,322,13.0,18.0,56,0.00,,OVC075,0.00,199.00,VWS V14.01,2013-01-13 20:00:00,
2013-01-13 13:01:00,19.7,6.6,30.30,NW,317,13.0,15.0,56,0.00,,OVC040,0.00,199.00,VWS V14.01,2013-01-13 20:01:00,
2013-01-13 13:06:00,19.5,6.8,30.30,WNW,290,6.0,15.0,57,0.00,,OVC040,0.00,197.00,VWS V14.01,2013-01-13 20:06:00,
2013-01-13 13:11:00,19.5,6.8,30.30,NNW,327,10.0,16.0,57,0.00,,OVC040,0.00,188.00,VWS V14.01,2013-01-13 20:11:00,
2013-01-13 13:16:00,19.6,7.2,30.30,WNW,294,12.0,16.0,58,0.00,,OVC040,0.00,185.00,VWS V14.01,2013-01-13 20:16:00,
2013-01-13 13:21:00,19.5,7.1,30.30,WNW,302,13.0,16.0,58,0.00,,OVC040,0.00,197.00,VWS V14.01,2013-01-13 20:21:00,
2013-01-13 13:26:00,19.5,7.5,30.30,NW,314,15.0,16.0,59,0.00,,OVC040,0.00,190.00,VWS V14.01,2013-01-13 20:26:00,
2013-01-13 13:30:00,19.3,7.3,30.30,NW,319,17.0,17.0,59,0.00,,OVC075,0.00,186.00,VWS V14.01,2013-01-13 20:30:00,
2013-01-13 13:31:00,19.2,7.2,30.30,NNW,331,16.0,17.0,59,0.00,,OVC040,0.00,181.00,VWS V14.01,2013-01-13 20:31:00,
2013-01-13 13:36:00,19.1,7.5,30.30,NNW,348,11.0,20.0,60,0.00,,OVC040,0.00,186.00,VWS V14.01,2013-01-13 20:36:00,
2013-01-13 13:41:00,19.0,7.1,30.30,NW,305,12.0,20.0,59,0.00,,OVC040,0.00,193.00,VWS V14.01,2013-01-13 20:41:00,
2013-01-13 13:46:00,18.9,7.3,30.30,North,349,15.0,25.0,60,0.00,,OVC040,0.00,230.00,VWS V14.01,2013-01-13 20:46:00,
2013-01-13 13:51:00,19.1,9.6,30.30,NNW,348,12.0,25.0,66,0.00,,OVC040,0.00,230.00,VWS V14.01,2013-01-13 20:51:00,
2013-01-13 13:56:00,18.9,8.1,30.30,NW,322,16.0,25.0,62,0.00,,OVC040,0.00,197.00,VWS V14.01,2013-01-13 20:56:00,
2013-01-13 14:00:00,18.8,7.9,30.31,NW,325,11.0,25.0,62,0.00,,OVC075,0.00,174.00,VWS V14.01,2013-01-13 21:00:00,
2013-01-13 14:01:00,18.8,7.9,30.30,NW,313,12.0,14.0,62,0.00,,OVC055,0.00,174.00,VWS V14.01,2013-01-13 21:01:00,
2013-01-13 14:06:00,18.6,8.5,30.31,NW,322,14.0,20.0,64,0.00,,OVC055,0.00,156.00,VWS V14.01,2013-01-13 21:06:00,
2013-01-13 14:11:00,18.6,8.5,30.31,NW,306,9.0,20.0,64,0.00,,OVC055,0.00,151.00,VWS V14.01,2013-01-13 21:11:00,
2013-01-13 14:16:00,18.6,8.5,30.31,NW,322,14.0,20.0,64,0.00,,OVC055,0.00,144.00,VWS V14.01,2013-01-13 21:16:00,
2013-01-13 14:21:00,18.6,8.5,30.31,WNW,303,11.0,20.0,64,0.00,,OVC055,0.00,139.00,VWS V14.01,2013-01-13 21:21:00,
2013-01-13 14:26:00,18.5,8.0,30.31,NW,307,16.0,20.0,63,0.00,,OVC055,0.00,139.00,VWS V14.01,2013-01-13 21:26:00,
2013-01-13 14:30:00,18.4,7.9,30.32,NW,310,13.0,20.0,63,0.00,,OVC075,0.00,135.00,VWS V14.01,2013-01-13 21:30:00,
2013-01-13 14:31:00,18.4,7.9,30.32,NW,309,11.0,13.0,63,0.00,,OVC055,0.00,135.00,VWS V14.01,2013-01-13 21:31:00,
2013-01-13 14:36:00,18.2,8.1,30.33,NNW,337,16.0,18.0,64,0.00,,OVC055,0.00,132.00,VWS V14.01,2013-01-13 21:36:00,
2013-01-13 14:41:00,18.2,8.1,30.33,NW,318,11.0,18.0,64,0.00,,OVC055,0.00,142.00,VWS V14.01,2013-01-13 21:41:00,
2013-01-13 14:46:00,18.2,7.7,30.33,NW,309,7.0,18.0,63,0.00,,OVC055,0.00,142.00,VWS V14.01,2013-01-13 21:46:00,
2013-01-13 14:51:00,18.3,8.2,30.33,NNW,346,5.0,18.0,64,0.00,,OVC055,0.00,127.00,VWS V14.01,2013-01-13 21:51:00,
2013-01-13 14:56:00,18.2,7.7,30.33,NNW,330,11.0,18.0,63,0.00,,OVC055,0.00,123.00,VWS V14.01,2013-01-13 21:56:00,
2013-01-13 15:00:00,18.0,7.5,30.33,North,5,14.0,18.0,63,0.00,,OVC075,0.00,116.00,VWS V14.01,2013-01-13 22:00:00,
2013-01-13 15:01:00,18.0,7.9,30.33,North,360,9.0,14.0,64,0.00,,OVC055,0.00,111.00,VWS V14.01,2013-01-13 22:01:00,
2013-01-13 15:06:00,17.9,7.4,30.33,North,360,6.0,16.0,63,0.00,,OVC055,0.00,97.00,VWS V14.01,2013-01-13 22:06:00,
2013-01-13 15:11:00,17.9,7.8,30.33,NNW,342,5.0,16.0,64,0.00,,OVC055,0.00,88.00,VWS V14.01,2013-01-13 22:11:00,
2013-01-13 15:16:00,17.8,7.7,30.33,NW,311,10.0,16.0,64,0.00,,OVC055,0.00,86.00,VWS V14.01,2013-01-13 22:16:00,
2013-01-13 15:21:00,17.8,8.0,30.33,NW,323,13.0,16.0,65,0.00,,OVC055,0.00,83.00,VWS V14.01,2013-01-13 22:21:00,
2013-01-13 15:26:00,17.8,8.0,30.34,WNW,298,7.0,16.0,65,0.00,,OVC055,0.00,54.00,VWS V14.01,2013-01-13 22:26:00,
2013-01-13 15:30:00,17.6,7.8,30.33,WNW,300,6.0,16.0,65,0.00,,OVC075,0.00,28.00,VWS V14.01,2013-01-13 22:30:00,
2013-01-13 15:31:00,17.6,7.8,30.33,NW,316,8.0,8.0,65,0.00,,OVC050,0.00,26.00,VWS V14.01,2013-01-13 22:31:00,
2013-01-13 15:36:00,17.3,7.6,30.34,NW,314,5.0,11.0,65,0.00,,OVC050,0.00,25.00,VWS V14.01,2013-01-13 22:36:00,
2013-01-13 15:41:00,16.8,7.1,30.34,NW,313,7.0,11.0,65,0.00,,OVC050,0.00,23.00,VWS V14.01,2013-01-13 22:41:00,
2013-01-13 15:46:00,16.4,6.7,30.35,NW,315,4.0,11.0,65,0.00,,OVC050,0.00,21.00,VWS V14.01,2013-01-13 22:46:00,
2013-01-13 15:51:00,16.0,6.7,30.34,NW,326,5.0,11.0,66,0.00,,OVC050,0.00,21.00,VWS V14.01,2013-01-13 22:51:00,
2013-01-13 15:56:00,15.7,6.4,30.34,NW,309,2.0,11.0,66,0.00,,OVC050,0.00,19.00,VWS V14.01,2013-01-13 22:56:00,
2013-01-13 16:00:00,15.5,6.5,30.35,NW,311,3.0,11.0,67,0.00,,OVC075,0.00,18.00,VWS V14.01,2013-01-13 23:00:00,
2013-01-13 16:01:00,15.4,6.4,30.35,WNW,302,2.0,3.0,67,0.00,,OVC050,0.00,18.00,VWS V14.01,2013-01-13 23:01:00,
2013-01-13 16:06:00,15.1,6.5,30.36,NW,306,2.0,3.0,68,0.00,,OVC050,0.00,16.00,VWS V14.01,2013-01-13 23:06:00,
2013-01-13 16:11:00,14.8,6.2,30.35,NW,306,0.0,4.0,68,0.00,,OVC050,0.00,14.00,VWS V14.01,2013-01-13 23:11:00,
2013-01-13 16:16:00,14.5,5.9,30.35,WNW,286,1.0,4.0,68,0.00,,OVC050,0.00,12.00,VWS V14.01,2013-01-13 23:16:00,
2013-01-13 16:21:00,14.2,5.9,30.35,WNW,286,0.0,4.0,69,0.00,,OVC050,0.00,11.00,VWS V14.01,2013-01-13 23:21:00,
2013-01-13 16:26:00,14.0,5.7,30.35,WNW,286,0.0,4.0,69,0.00,,OVC050,0.00,9.00,VWS V14.01,2013-01-13 23:26:00,
2013-01-13 16:30:00,13.7,5.8,30.35,West,265,3.0,4.0,70,0.00,,OVC075,0.00,7.00,VWS V14.01,2013-01-13 23:30:00,
2013-01-13 16:31:00,13.6,5.7,30.35,West,265,0.0,3.0,70,0.00,,CLR,0.00,7.00,VWS V14.01,2013-01-13 23:31:00,
2013-01-13 16:36:00,13.2,5.3,30.36,West,260,2.0,3.0,70,0.00,,CLR,0.00,5.00,VWS V14.01,2013-01-13 23:36:00,
2013-01-13 16:41:00,13.2,5.6,30.36,West,271,1.0,3.0,71,0.00,,CLR,0.00,0.00,VWS V14.01,2013-01-13 23:41:00,
2013-01-13 16:46:00,13.1,5.5,30.36,WNW,290,1.0,3.0,71,0.00,,CLR,0.00,0.00,VWS V14.01,2013-01-13 23:46:00,
2013-01-13 16:51:00,12.9,5.3,30.36,WNW,287,0.0,3.0,71,0.00,,CLR,0.00,0.00,VWS V14.01,2013-01-13 23:51:00,
2013-01-13 16:56:00,12.6,5.0,30.36,WNW,288,0.0,3.0,71,0.00,,CLR,0.00,0.00,VWS V14.01,2013-01-13 23:56:00,
2013-01-13 17:00:00,12.2,4.6,30.36,West,271,2.0,3.0,71,0.00,,OVC075,0.00,0.00,VWS V14.01,2013-01-14 00:00:00,
2013-01-13 17:01:00,12.0,4.4,30.36,West,271,2.0,2.0,71,0.00,,CLR,0.00,0.00,VWS V14.01,2013-01-14 00:01:00,
2013-01-13 17:06:00,11.5,4.2,30.36,West,271,3.0,3.0,72,0.00,,CLR,0.00,0.00,VWS V14.01,2013-01-14 00:06:00,
2013-01-13 17:11:00,11.1,3.8,30.37,West,261,1.0,3.0,72,0.00,,CLR,0.00,0.00,VWS V14.01,2013-01-14 00:11:00,
2013-01-13 17:16:00,11.1,3.8,30.37,WSW,246,2.0,3.0,72,0.00,,CLR,0.00,0.00,VWS V14.01,2013-01-14 00:16:00,
2013-01-13 17:21:00,11.0,3.8,30.37,WSW,237,1.0,3.0,72,0.00,,CLR,0.00,0.00,VWS V14.01,2013-01-14 00:21:00,
2013-01-13 17:26:00,10.9,3.7,30.37,WSW,237,0.0,3.0,72,0.00,,CLR,0.00,0.00,VWS V14.01,2013-01-14 00:26:00,
2013-01-13 17:30:00,10.5,3.0,30.37,WSW,237,0.0,3.0,71,0.00,,OVC075,0.00,0.00,VWS V14.01,2013-01-14 00:30:00,
2013-01-13 17:31:00,10.4,2.9,30.37,WSW,237,0.0,0.0,71,0.00,,CLR,0.00,0.00,VWS V14.01,2013-01-14 00:31:00,
2013-01-13 17:36:00,9.0,1.5,30.38,West,262,2.0,3.0,71,0.00,,CLR,0.00,0.00,VWS V14.01,2013-01-14 00:36:00,
2013-01-13 17:41:00,7.7,0.6,30.38,West,262,0.0,3.0,72,0.00,,CLR,0.00,0.00,VWS V14.01,2013-01-14 00:41:00,
2013-01-13 17:46:00,6.7,-0.1,30.39,West,259,1.0,3.0,73,0.00,,CLR,0.00,0.00,VWS V14.01,2013-01-14 00:46:00,
2013-01-13 17:51:00,6.1,-0.1,30.39,West,259,1.0,3.0,75,0.00,,CLR,0.00,0.00,VWS V14.01,2013-01-14 00:51:00,
2013-01-13 17:56:00,6.0,0.1,30.39,West,259,0.0,3.0,76,0.00,,CLR,0.00,0.00,VWS V14.01,2013-01-14 00:56:00,
2013-01-13 18:00:00,6.1,0.4,30.39,West,259,2.0,3.0,77,0.00,,OVC075,0.00,0.00,VWS V14.01,2013-01-14 01:00:00,
2013-01-13 18:02:00,6.1,0.4,30.39,West,259,0.0,2.0,77,0.00,,CLR,0.00,0.00,VWS V14.01,2013-01-14 01:02:00,
2013-01-13 18:07:00,6.0,0.3,30.39,West,266,1.0,2.0,77,0.00,,CLR,0.00,0.00,VWS V14.01,2013-01-14 01:07:00,
2013-01-13 18:12:00,6.0,0.3,30.40,WSW,240,2.0,3.0,77,0.00,,CLR,0.00,0.00,VWS V14.01,2013-01-14 01:12:00,
2013-01-13 18:16:00,6.6,1.2,30.40,SSW,212,3.0,4.0,78,0.00,,CLR,0.00,0.00,VWS V14.01,2013-01-14 01:16:00,
2013-01-13 18:22:00,6.9,1.2,30.40,West,270,1.0,4.0,77,0.00,,CLR,0.00,0.00,VWS V14.01,2013-01-14 01:22:00,
2013-01-13 18:26:00,7.3,1.6,30.40,West,269,1.0,4.0,77,0.00,,CLR,0.00,0.00,VWS V14.01,2013-01-14 01:26:00,
2013-01-13 18:30:00,6.2,0.0,30.40,West,267,1.0,4.0,75,0.00,,OVC075,0.00,0.00,VWS V14.01,2013-01-14 01:30:00,
2013-01-13 18:32:00,6.0,-0.2,30.40,West,268,0.0,2.0,75,0.00,,CLR,0.00,0.00,VWS V14.01,2013-01-14 01:32:00,
2013-01-13 18:36:00,5.4,-0.5,30.41,West,270,1.0,2.0,76,0.00,,CLR,0.00,0.00,VWS V14.01,2013-01-14 01:36:00,
2013-01-13 18:41:00,4.7,-1.2,30.41,West,263,0.0,3.0,76,0.00,,CLR,0.00,0.00,VWS V14.01,2013-01-14 01:41:00,
2013-01-13 18:46:00,4.3,-1.3,30.41,West,261,2.0,4.0,77,0.00,,CLR,0.00,0.00,VWS V14.01,2013-01-14 01:46:00,
2013-01-13 18:52:00,4.5,-0.8,30.41,West,260,2.0,4.0,78,0.00,,CLR,0.00,0.00,VWS V14.01,2013-01-14 01:52:00,
2013-01-13 18:56:00,5.1,0.0,30.41,WSW,255,1.0,4.0,79,0.00,,CLR,0.00,0.00,VWS V14.01,2013-01-14 01:56:00,
2013-01-13 19:00:00,5.3,0.2,30.41,WSW,248,2.0,4.0,79,0.00,,OVC075,0.00,0.00,VWS V14.01,2013-01-14 02:00:00,
2013-01-13 19:01:00,5.3,0.2,30.40,WSW,250,0.0,2.0,79,0.00,,CLR,0.00,0.00,VWS V14.01,2013-01-14 02:01:00,
2013-01-13 19:06:00,5.0,-0.3,30.40,West,272,2.0,3.0,78,0.00,,CLR,0.00,0.00,VWS V14.01,2013-01-14 02:06:00,
2013-01-13 19:12:00,4.1,-1.5,30.41,West,271,1.0,3.0,77,0.00,,CLR,0.00,0.00,VWS V14.01,2013-01-14 02:12:00,
2013-01-13 19:17:00,3.4,-2.2,30.41,West,267,0.0,3.0,77,0.00,,CLR,0.00,0.00,VWS V14.01,2013-01-14 02:17:00,
2013-01-13 19:22:00,3.0,-2.3,30.41,West,263,1.0,3.0,78,0.00,,CLR,0.00,0.00,VWS V14.01,2013-01-14 02:22:00,
2013-01-13 19:27:00,2.9,-2.4,30.41,WSW,256,2.0,3.0,78,0.00,,CLR,0.00,0.00,VWS V14.01,2013-01-14 02:27:00,
2013-01-13 19:30:00,2.9,-2.4,30.41,West,260,1.0,3.0,78,0.00,,OVC075,0.00,0.00,VWS V14.01,2013-01-14 02:30:00,
2013-01-13 19:32:00,2.9,-2.1,30.41,West,260,1.0,2.0,79,0.00,,CLR,0.00,0.00,VWS V14.01,2013-01-14 02:32:00,
2013-01-13 19:37:00,2.9,-2.1,30.41,West,259,1.0,3.0,79,0.00,,CLR,0.00,0.00,VWS V14.01,2013-01-14 02:37:00,
2013-01-13 19:42:00,3.1,-1.9,30.41,West,259,1.0,3.0,79,0.00,,CLR,0.00,0.00,VWS V14.01,2013-01-14 02:42:00,
2013-01-13 19:47:00,3.4,-1.6,30.41,West,263,0.0,3.0,79,0.00,,CLR,0.00,0.00,VWS V14.01,2013-01-14 02:47:00,
2013-01-13 19:52:00,3.4,-1.6,30.41,West,264,1.0,3.0,79,0.00,,CLR,0.00,0.00,VWS V14.01,2013-01-14 02:52:00,
2013-01-13 19:57:00,3.1,-2.2,30.41,West,260,0.0,3.0,78,0.00,,CLR,0.00,0.00,VWS V14.01,2013-01-14 02:57:00,
2013-01-13 20:00:00,3.0,-2.3,30.41,West,264,1.0,3.0,78,0.00,,OVC075,0.00,0.00,VWS V14.01,2013-01-14 03:00:00,
2013-01-13 20:02:00,2.9,-2.1,30.40,West,264,0.0,2.0,79,0.00,,SCT039,0.00,0.00,VWS V14.01,2013-01-14 03:02:00,
2013-01-13 20:07:00,2.6,-2.7,30.40,West,264,1.0,3.0,78,0.00,,SCT039,0.00,0.00,VWS V14.01,2013-01-14 03:07:00,
2013-01-13 20:12:00,2.1,-3.2,30.41,West,264,1.0,3.0,78,0.00,,SCT039,0.00,0.00,VWS V14.01,2013-01-14 03:12:00,
2013-01-13 20:17:00,2.1,-3.2,30.41,West,264,0.0,3.0,78,0.00,,SCT039,0.00,0.00,VWS V14.01,2013-01-14 03:17:00,
2013-01-13 20:22:00,2.3,-2.7,30.41,West,264,1.0,3.0,79,0.00,,SCT039,0.00,0.00,VWS V14.01,2013-01-14 03:22:00,
2013-01-13 20:27:00,2.6,-2.4,30.40,West,264,0.0,3.0,79,0.00,,SCT039,0.00,0.00,VWS V14.01,2013-01-14 03:27:00,
2013-01-13 20:30:00,2.8,-2.2,30.40,West,264,0.0,3.0,79,0.00,,OVC075,0.00,0.00,VWS V14.01,2013-01-14 03:30:00,
2013-01-13 20:32:00,3.0,-2.0,30.40,West,264,1.0,2.0,79,0.00,,SCT039,0.00,0.00,VWS V14.01,2013-01-14 03:32:00,
2013-01-13 20:37:00,3.9,-1.1,30.40,West,264,2.0,3.0,79,0.00,,SCT039,0.00,0.00,VWS V14.01,2013-01-14 03:37:00,
2013-01-13 20:42:00,5.0,-0.1,30.39,WSW,257,1.0,3.0,79,0.00,,SCT039,0.00,0.00,VWS V14.01,2013-01-14 03:42:00,
2013-01-13 20:47:00,5.7,2.7,30.39,WSW,245,2.0,3.0,87,0.00,,SCT039,0.00,0.00,VWS V14.01,2013-01-14 03:47:00,
2013-01-13 20:52:00,6.6,0.9,30.38,WSW,238,3.0,4.0,77,0.00,,SCT039,0.00,0.00,VWS V14.01,2013-01-14 03:52:00,
2013-01-13 20:57:00,8.2,2.2,30.38,WSW,243,2.0,4.0,76,0.00,,SCT039,0.00,0.00,VWS V14.01,2013-01-14 03:57:00,
2013-01-13 21:00:00,8.9,2.6,30.37,WSW,242,2.0,4.0,75,0.00,,OVC075,0.00,0.00,VWS V14.01,2013-01-14 04:00:00,
2013-01-13 21:02:00,9.1,2.5,30.36,WSW,242,1.0,2.0,74,0.00,,OVC060,0.00,0.00,VWS V14.01,2013-01-14 04:02:00,
2013-01-13 21:07:00,9.2,2.0,30.36,SW,233,1.0,3.0,72,0.00,,OVC060,0.00,0.00,VWS V14.01,2013-01-14 04:07:00,
2013-01-13 21:12:00,9.7,2.5,30.36,SW,227,1.0,3.0,72,0.00,,OVC060,0.00,0.00,VWS V14.01,2013-01-14 04:12:00,
2013-01-13 21:17:00,10.8,3.3,30.35,SW,226,4.0,4.0,71,0.00,,OVC060,0.00,0.00,VWS V14.01,2013-01-14 04:17:00,
2013-01-13 21:22:00,12.3,4.1,30.35,SW,232,3.0,6.0,69,0.00,,OVC060,0.00,0.00,VWS V14.01,2013-01-14 04:22:00,
2013-01-13 21:27:00,13.0,4.1,30.34,SW,223,3.0,7.0,67,0.00,,OVC060,0.00,0.00,VWS V14.01,2013-01-14 04:27:00,
2013-01-13 21:30:00,12.9,3.7,30.34,SW,215,4.0,7.0,66,0.00,,OVC075,0.00,0.00,VWS V14.01,2013-01-14 04:30:00,
2013-01-13 21:32:00,13.0,3.8,30.34,WSW,240,1.0,9.0,66,0.00,,OVC060,0.00,0.00,VWS V14.01,2013-01-14 04:32:00,
2013-01-13 21:37:00,13.6,4.7,30.34,SW,220,6.0,9.0,67,0.00,,OVC060,0.00,0.00,VWS V14.01,2013-01-14 04:37:00,
2013-01-13 21:42:00,13.8,4.6,30.34,WSW,245,1.0,9.0,66,0.00,,OVC060,0.00,0.00,VWS V14.01,2013-01-14 04:42:00,
2013-01-13 21:47:00,12.6,3.1,30.35,WNW,283,3.0,9.0,65,0.00,,OVC060,0.00,0.00,VWS V14.01,2013-01-14 04:47:00,
2013-01-13 21:52:00,11.8,2.7,30.35,West,275,3.0,9.0,66,0.00,,OVC060,0.00,0.00,VWS V14.01,2013-01-14 04:52:00,
2013-01-13 21:57:00,11.5,3.0,30.35,West,259,2.0,9.0,68,0.00,,OVC060,0.00,0.00,VWS V14.01,2013-01-14 04:57:00,
2013-01-13 22:00:00,11.8,3.3,30.35,WSW,252,3.0,9.0,68,0.00,,OVC060,0.00,0.00,VWS V14.01,2013-01-14 05:00:00,
2013-01-13 22:03:00,12.2,3.7,30.34,WSW,243,3.0,6.0,68,0.00,,OVC040,0.00,0.00,VWS V14.01,2013-01-14 05:03:00,
2013-01-13 22:08:00,12.1,3.3,30.34,West,272,1.0,6.0,67,0.00,,OVC040,0.00,0.00,VWS V14.01,2013-01-14 05:08:00,
2013-01-13 22:13:00,11.5,3.0,30.34,West,281,2.0,6.0,68,0.00,,OVC040,0.00,0.00,VWS V14.01,2013-01-14 05:13:00,
2013-01-13 22:18:00,11.0,3.2,30.35,West,277,0.0,6.0,70,0.00,,OVC040,0.00,0.00,VWS V14.01,2013-01-14 05:18:00,
2013-01-13 22:23:00,11.7,3.8,30.34,WSW,240,3.0,6.0,70,0.00,,OVC040,0.00,0.00,VWS V14.01,2013-01-14 05:23:00,
2013-01-13 22:28:00,12.6,4.4,30.34,WSW,258,2.0,6.0,69,0.00,,OVC040,0.00,0.00,VWS V14.01,2013-01-14 05:28:00,
2013-01-13 22:30:00,12.6,4.4,30.34,West,260,0.0,6.0,69,0.00,,OVC075,0.00,0.00,VWS V14.01,2013-01-14 05:30:00,
2013-01-13 22:33:00,12.3,4.1,30.34,West,263,1.0,2.0,69,0.00,,OVC040,0.00,0.00,VWS V14.01,2013-01-14 05:33:00,
2013-01-13 22:38:00,11.8,3.6,30.34,WNW,285,1.0,3.0,69,0.00,,OVC040,0.00,0.00,VWS V14.01,2013-01-14 05:38:00,
2013-01-13 22:43:00,11.4,3.5,30.35,West,272,1.0,3.0,70,0.00,,OVC040,0.00,0.00,VWS V14.01,2013-01-14 05:43:00,
2013-01-13 22:48:00,11.2,3.3,30.35,WSW,241,1.0,4.0,70,0.00,,OVC040,0.00,0.00,VWS V14.01,2013-01-14 05:48:00,
2013-01-13 22:53:00,11.1,3.5,30.35,West,265,1.0,4.0,71,0.00,,OVC040,0.00,0.00,VWS V14.01,2013-01-14 05:53:00,
2013-01-13 22:58:00,11.1,3.5,30.35,West,267,1.0,4.0,71,0.00,,OVC040,0.00,0.00,VWS V14.01,2013-01-14 05:58:00,
2013-01-13 23:00:00,11.1,3.5,30.35,West,273,1.0,4.0,71,0.00,,OVC075,0.00,0.00,VWS V14.01,2013-01-14 06:00:00,
2013-01-13 23:03:00,11.0,3.5,30.35,West,269,0.0,2.0,71,0.00,,OVC040,0.00,0.00,VWS V14.01,2013-01-14 06:03:00,
2013-01-13 23:08:00,10.8,3.3,30.34,West,269,0.0,3.0,71,0.00,,OVC040,0.00,0.00,VWS V14.01,2013-01-14 06:08:00,
2013-01-13 23:13:00,10.5,3.0,30.35,West,269,1.0,3.0,71,0.00,,OVC040,0.00,0.00,VWS V14.01,2013-01-14 06:13:00,
2013-01-13 23:18:00,10.4,2.9,30.35,West,270,0.0,3.0,71,0.00,,OVC040,0.00,0.00,VWS V14.01,2013-01-14 06:18:00,
2013-01-13 23:23:00,10.1,2.6,30.35,West,270,0.0,3.0,71,0.00,,OVC040,0.00,0.00,VWS V14.01,2013-01-14 06:23:00,
2013-01-13 23:28:00,9.7,2.5,30.35,West,269,1.0,3.0,72,0.00,,OVC040,0.00,0.00,VWS V14.01,2013-01-14 06:28:00,
2013-01-13 23:30:00,9.6,2.4,30.35,West,269,0.0,3.0,72,0.00,,OVC075,0.00,0.00,VWS V14.01,2013-01-14 06:30:00,
2013-01-13 23:33:00,9.5,2.3,30.35,West,270,0.0,0.0,72,0.00,,OVC040,0.00,0.00,VWS V14.01,2013-01-14 06:33:00,
2013-01-13 23:38:00,9.2,2.0,30.35,West,270,0.0,1.0,72,0.00,,OVC040,0.00,0.00,VWS V14.01,2013-01-14 06:38:00,
2013-01-13 23:43:00,8.9,2.0,30.35,West,270,0.0,1.0,73,0.00,,OVC040,0.00,0.00,VWS V14.01,2013-01-14 06:43:00,
2013-01-13 23:48:00,8.7,1.8,30.35,West,270,0.0,1.0,73,0.00,,OVC040,0.00,0.00,VWS V14.01,2013-01-14 06:48:00,
2013-01-13 23:53:00,8.5,1.9,30.35,West,269,0.0,1.0,74,0.00,,OVC040,0.00,0.00,VWS V14.01,2013-01-14 06:53:00,
2013-01-13 23:58:00,8.5,1.9,30.35,West,270,0.0,1.0,74,0.00,,OVC040,0.00,0.00,VWS V14.01,2013-01-14 06:58:00,